Wetbulb
66.35 65.51 61.55 59.38 50.95 50.96 48.70 50.68 54.71 53.66 55.76 59.71 61.61 61.32 61.80 63.40 63.19 61.53 75.61 75.72 76.12 77.05 78.68 75.83 77.46 77.69 78.07 77.87 77.36 77.14 76.38 76.26 76.66 76.28 76.31 76.73 77.01 77.41 77.49 77.01 76.61 75.48 74.77 74.88 74.80 73.87 72.29 70.83 70.05
63.73 60.24 60.36 55.94 48.85 46.89 49.04 53.14 51.88 53.62 56.99 59.80 58.86 58.96 61.79 60.31 67.27 72.11 74.20 75.48 75.44 77.26 79.25 76.48 77.23 77.54 77.94 77.77 77.21 76.71 76.33 76.38 76.56 76.18 76.71 76.93 77.16 77.26 76.86 76.66 76.15 75.47 75.29 75.00 74.13 72.51 71.00 69.97 69.66
61.97 61.79 56.28 51.62 49.85 47.08 48.79 52.67 53.34 54.49 56.65 56.64 55.60 58.92 59.93 63.97 70.46 70.12 74.31 75.21 76.31 77.94 79.21 77.51 77.16 77.38 77.79 77.67 77.21 76.86 76.61 76.43 76.28 76.66 76.86 76.96 77.11 77.03 76.45 76.16 76.15 75.81 75.40 74.51 73.19 71.66 70.14 69.53 69.40
58.62 58.65 57.51 50.26 48.26 51.34 51.83 53.42 53.06 53.26 54.50 55.87 56.39 54.03 59.14 67.68 66.83 64.14 72.23 75.85 76.41 77.72 78.51 76.28 76.96 77.41 77.69 77.61 77.18 76.73 76.56 76.28 76.48 76.96 76.96 76.98 76.78 76.32 76.15 76.01 76.28 76.26 74.97 74.11 72.35 70.80 69.38 69.09 69.22
59.07 57.10 50.39 48.67 48.61 51.21 53.45 53.27 53.13 52.91 53.89 54.11 54.94 53.22 55.59 64.42 62.95 63.50 68.07 74.28 76.32 77.30 77.43 76.78 76.68 77.15 77.49 77.71 77.21 76.83 76.63 76.38 76.48 76.73 76.73 76.53 76.25 75.85 75.95 76.28 76.25 75.77 74.74 73.45 71.77 70.32 68.97 69.17 69.91
53.78 53.96 48.76 47.38 49.71 52.48 53.77 54.44 53.38 53.07 54.34 54.78 54.09 54.61 56.07 64.29 63.14 61.88 66.54 70.90 75.32 77.09 77.25 76.82 76.25 76.70 76.98 77.11 77.18 76.75 76.35 76.35 76.20 76.40 76.38 76.28 75.90 75.80 76.05 76.18 76.05 75.61 74.44 72.82 71.39 70.04 69.22 69.60 70.87
51.91 51.58 48.10 48.45 48.79 50.16 51.63 55.19 52.89 53.42 53.50 53.84 55.82 53.40 57.18 59.90 65.09 62.79 62.20 71.43 74.07 77.34 77.19 76.88 75.60 76.19 76.75 76.67 76.75 76.59 76.39 76.29 76.32 76.19 75.97 75.87 75.82 75.90 76.08 76.03 75.68 74.86 73.72 72.06 70.95 69.47 69.56 70.46 72.10
53.31 51.71 48.65 49.31 47.92 49.17 52.75 53.23 54.22 52.70 52.84 57.00 56.41 52.13 54.60 59.57 61.91 61.33 61.25 65.33 73.28 76.89 76.72 76.35 74.35 73.96 74.63 76.32 76.60 76.46 76.34 76.29 76.03 76.01 75.97 75.79 75.60 75.63 75.58 75.59 75.48 74.23 72.54 71.28 70.26 69.87 70.46 71.96 73.51
53.27 47.41 46.22 47.53 48.02 49.25 52.06 50.75 53.12 54.82 52.53 53.69 54.68 55.16 57.35 58.76 59.61 59.32 59.71 60.73 70.36 76.18 75.35 75.63 74.89 72.75 72.86 73.19 75.76 76.10 75.93 76.10 75.79 75.68 75.79 74.98 72.53 73.34 74.35 74.77 75.00 73.47 72.08 71.14 70.57 70.62 72.14 73.29 73.74
50.26 48.44 47.72 50.29 49.91 48.70 50.20 50.45 51.17 51.08 51.45 51.83 52.79 55.46 56.54 57.02 57.86 57.21 57.88 58.83 62.07 72.81 75.94 74.83 75.61 73.70 72.15 71.62 75.06 74.72 75.16 75.09 74.35 73.96 74.87 72.87 72.48 73.27 73.35 74.12 74.02 72.86 72.06 71.55 72.03 72.32 72.98 72.79 74.56
52.16 48.29 51.01 50.67 51.42 52.09 51.21 51.02 52.74 51.27 50.03 52.20 52.06 54.34 56.15 56.81 57.24 56.94 57.43 58.74 59.71 68.14 74.97 75.58 75.73 76.21 72.87 71.66 73.40 72.40 72.89 72.50 73.18 73.68 74.66 73.89 72.59 73.42 73.33 73.89 71.44 70.86 72.02 69.72 70.77 71.39 72.35 73.82 75.17
48.56 51.24 51.07 51.12 51.36 50.88 49.70 51.43 50.32 51.21 51.73 53.98 54.37 55.36 55.96 56.07 56.61 56.78 57.24 58.01 59.42 61.59 73.48 76.28 74.58 76.05 75.34 72.75 72.85 71.77 72.03 72.34 72.61 72.74 75.89 74.24 73.11 74.43 73.15 71.78 69.66 71.05 70.14 70.31 72.97 72.22 73.77 75.62 75.94
51.33 51.87 51.47 52.31 52.43 52.60 53.09 51.29 50.99 51.40 53.85 54.43 54.11 54.15 54.18 55.86 56.87 58.41 59.33 59.87 60.45 60.84 65.14 74.97 74.70 74.35 76.20 77.35 73.60 72.07 72.62 72.30 72.86 73.65 75.09 73.44 73.05 75.16 73.18 71.83 70.02 70.30 69.64 71.98 72.83 73.23 74.85 75.77 74.77
53.40 51.99 51.82 52.76 52.71 53.37 51.65 51.55 51.85 52.39 54.08 54.22 54.35 53.48 53.99 54.53 56.04 57.50 59.46 60.05 61.29 62.57 63.63 73.73 76.42 74.47 75.58 75.45 76.54 74.83 74.26 72.70 72.95 74.07 74.85 75.82 74.13 75.71 72.59 71.61 70.33 69.35 70.30 72.05 73.28 74.02 74.72 74.64 73.99
52.62 49.69 52.02 52.92 52.54 51.10 52.49 48.96 49.85 54.11 54.96 54.27 54.33 54.96 54.59 55.60 56.51 57.48 58.32 60.46 61.69 62.15 67.41 71.23 76.26 74.17 73.66 75.64 75.94 75.05 73.34 73.05 72.85 73.80 76.81 76.11 75.82 76.35 74.96 70.76 69.51 70.44 73.58 73.93 75.20 76.08 75.66 74.02 73.70
50.55 51.54 47.91 51.83 52.44 52.93 51.48 46.46 51.63 54.11 54.39 53.97 54.40 54.67 55.51 56.40 56.93 58.03 59.60 60.58 62.73 62.95 65.39 72.09 75.58 75.10 73.64 75.06 75.73 74.77 73.84 73.50 73.05 73.11 75.00 75.26 74.98 76.06 75.01 70.02 69.99 72.37 74.79 74.68 74.22 73.53 72.29 72.22 71.71
51.32 46.19 47.10 48.39 52.69 52.01 51.45 48.64 52.74 55.05 54.80 54.12 54.78 55.34 55.68 56.58 58.17 59.93 59.38 60.01 61.08 63.09 64.60 66.74 73.76 75.01 75.47 75.87 75.43 75.53 76.29 73.53 73.03 72.92 73.35 75.45 73.58 73.43 72.81 70.95 72.79 76.87 73.50 73.75 73.31 72.46 72.27 71.79 71.99
44.84 45.34 47.06 46.79 50.62 51.32 50.06 49.72 52.65 54.80 54.91 55.15 55.84 56.36 56.73 57.22 58.38 60.22 61.76 61.13 61.57 62.64 66.72 69.53 72.60 75.58 76.93 76.19 76.25 74.53 74.24 73.50 73.03 72.39 72.85 75.20 73.48 72.72 73.19 71.44 75.26 75.33 73.10 72.58 72.52 73.34 72.40 72.11 71.59
47.87 46.90 46.37 48.97 51.73 50.58 50.60 50.84 52.72 55.03 55.56 55.31 56.08 56.83 57.41 58.29 60.02 60.76 61.81 63.15 62.45 64.00 66.65 71.05 71.17 75.45 75.60 75.08 74.15 73.42 72.87 73.03 72.60 72.20 74.53 74.57 73.02 73.18 73.06 71.30 75.06 75.22 73.49 74.48 74.16 72.99 72.17 70.70 71.33
48.28 47.05 47.21 50.13 51.93 51.10 50.81 50.79 53.89 54.93 55.07 55.64 55.78 55.90 56.41 57.16 57.81 59.48 61.97 62.72 64.61 64.42 66.11 69.55 73.68 75.75 75.65 74.88 74.75 75.06 73.44 73.66 72.79 72.69 73.94 74.25 72.72 73.59 72.49 74.81 75.28 75.28 72.48 74.03 73.89 73.30 70.53 70.25 69.68
48.03 46.78 47.33 46.90 50.08 52.32 51.72 49.36 51.15 54.05 55.34 55.03 55.03 55.43 56.31 56.90 57.45 57.99 59.48 62.59 64.02 64.12 65.66 66.69 74.06 74.77 75.78 75.92 75.18 75.24 73.22 72.41 72.50 72.35 71.29 72.93 72.92 72.71 74.02 74.82 75.23 75.80 75.14 72.72 73.58 73.17 72.26 68.34 68.62
44.82 49.87 48.79 48.11 47.79 44.45 51.78 42.84 49.66 52.27 52.41 53.48 54.92 55.52 56.35 57.78 58.90 59.82 58.40 60.04 63.11 62.81 65.97 65.89 73.04 73.89 75.25 76.05 74.65 73.73 71.25 69.11 71.68 71.62 71.92 72.20 73.22 72.47 72.07 74.53 75.19 75.39 73.06 75.29 73.26 72.67 71.91 71.49 69.40
46.85 50.47 49.25 49.47 48.42 48.33 48.38 45.57 48.46 51.64 49.90 50.99 53.77 54.67 56.46 57.57 58.29 58.50 59.29 59.22 60.36 61.70 63.86 66.36 71.70 73.52 74.53 74.75 75.45 74.17 71.07 71.71 72.89 72.24 74.37 72.87 73.81 73.46 71.29 75.41 74.78 74.52 73.45 73.74 72.59 70.94 70.82 69.70 68.48
51.51 49.61 49.67 49.54 48.52 42.34 45.71 44.41 44.52 45.59 47.37 49.68 53.15 54.97 56.61 57.49 57.91 58.67 59.46 60.19 59.87 60.33 61.25 65.41 70.55 73.18 74.28 74.02 74.35 74.50 72.32 71.46 70.70 72.46 72.06 71.00 70.75 71.46 74.50 74.24 75.21 74.41 72.97 71.19 70.04 69.18 68.26 68.10 66.61
49.90 47.47 40.16 39.17 40.24 39.63 46.44 44.27 43.24 49.27 50.16 49.79 50.31 52.54 55.91 57.65 57.81 57.09 58.62 57.95 59.66 59.00 59.58 62.49 70.09 71.16 72.94 73.10 73.56 74.04 73.74 74.76 74.38 73.22 71.94 71.74 70.44 70.40 73.77 75.01 73.82 71.88 71.82 69.16 67.71 67.28 66.47 65.98 64.24
47.51 46.50 37.35 29.66 34.11 37.66 45.63 40.46 45.30 50.65 52.83 52.11 52.74 51.79 55.64 57.31 58.19 56.57 57.36 56.25 57.81 58.51 60.04 59.93 66.89 70.04 71.56 72.32 72.78 74.18 74.89 71.77 71.93 73.71 72.55 71.69 71.46 72.47 74.45 73.26 72.43 69.64 68.20 67.02 66.41 64.68 63.09 64.13 62.42
46.45 43.44 47.31 37.90 40.12 36.70 43.31 45.24 50.96 52.55 51.54 51.22 51.27 51.48 53.99 55.82 57.79 57.05 57.01 56.47 57.45 58.35 61.09 61.81 65.62 67.94 70.34 71.71 72.55 72.96 73.99 73.55 72.63 73.65 75.18 72.39 73.31 73.17 72.68 71.26 68.95 67.03 65.99 64.78 65.59 63.72 62.59 61.77 61.49
48.61 49.61 41.39 43.73 30.90 31.72 40.08 41.39 43.14 46.41 46.59 49.15 48.39 49.69 53.41 54.89 55.88 49.45 57.51 56.48 57.76 58.62 60.88 63.62 67.48 68.07 69.97 70.30 72.37 72.66 72.52 72.51 74.21 74.68 73.72 73.09 73.69 72.19 68.75 67.86 66.34 65.03 63.98 63.54 62.96 60.02 59.75 59.59 58.38
44.40 44.74 45.64 43.99 40.16 32.60 33.37 39.14 47.33 47.41 47.54 44.71 45.40 48.77 51.88 53.91 56.14 55.56 57.76 56.60 57.46 58.32 59.03 67.92 68.30 68.22 70.41 68.70 71.47 71.99 70.99 70.97 73.26 73.03 73.63 73.33 71.36 67.34 65.66 65.50 63.87 62.16 60.72 59.73 58.96 57.89 57.08 56.27 55.15
48.15 45.11 46.02 38.01 37.29 38.87 38.49 37.34 50.27 49.74 47.95 46.94 46.40 47.69 50.36 53.61 56.37 58.93 55.90 56.39 56.96 58.46 61.78 66.71 69.04 68.91 69.63 67.90 70.49 70.91 72.60 71.65 71.02 69.57 69.93 66.41 66.22 64.27 63.33 61.79 59.92 59.30 56.62 58.08 55.57 54.17 52.80 52.00 51.14
MSLP
1008.78 1007.54 1006.33 1004.95 1003.57 1000.67 997.95 996.12 995.38 995.14 995.92 996.38 996.88 996.75 996.43 996.58 996.91 999.03 1000.37 1000.60 1001.31 1001.85 1003.51 1004.60 1005.22 1006.02 1006.59 1006.84 1007.17 1007.43 1008.05 1008.47 1008.85 1009.17 1009.63 1009.71 1009.76 1009.89 1010.28 1010.60 1010.93 1011.31 1011.56 1011.75 1012.02 1012.19 1012.26 1012.33 1012.39
1007.91 1006.57 1005.63 1003.55 1001.63 998.58 996.35 995.54 994.87 996.14 996.60 997.47 997.72 997.57 997.52 997.37 997.77 999.12 1000.26 1001.62 1001.52 1001.92 1003.51 1004.27 1005.43 1005.77 1006.69 1006.93 1007.56 1007.85 1008.18 1008.70 1009.11 1009.50 1009.76 1009.89 1010.07 1010.20 1010.49 1010.85 1010.97 1011.23 1011.68 1011.94 1012.13 1012.32 1012.41 1012.37 1012.37
1008.34 1006.41 1004.50 1002.10 1000.15 997.75 995.93 995.35 995.59 996.63 997.32 998.02 997.96 998.02 997.86 998.54 999.95 1000.67 1001.37 1001.88 1001.96 1001.88 1003.13 1004.33 1005.54 1006.13 1006.45 1007.05 1007.55 1007.90 1008.45 1008.89 1009.15 1009.61 1009.93 1010.11 1010.26 1010.45 1010.65 1010.99 1011.26 1011.28 1011.62 1011.92 1012.11 1012.30 1012.40 1012.39 1012.42
1006.51 1005.61 1004.30 1001.25 998.55 997.02 996.46 996.32 997.70 997.85 998.09 998.45 998.39 998.39 998.62 1000.22 1000.83 1001.45 1001.66 1001.89 1002.01 1002.23 1003.00 1004.77 1005.70 1006.18 1006.49 1007.23 1007.66 1007.95 1008.44 1008.97 1009.32 1009.78 1010.11 1010.25 1010.40 1010.69 1010.86 1011.01 1011.38 1011.57 1011.67 1011.91 1012.19 1012.41 1012.53 1012.53 1012.54
1006.19 1003.93 1002.05 1000.08 998.77 997.67 996.93 998.08 998.79 998.70 998.35 998.40 998.63 998.75 998.92 1000.29 1001.17 1001.33 1001.33 1001.89 1001.91 1002.55 1003.18 1004.97 1005.88 1006.30 1006.73 1007.05 1007.73 1008.10 1008.25 1008.90 1009.42 1009.82 1010.23 1010.51 1010.49 1010.76 1011.07 1011.25 1011.43 1011.57 1011.79 1011.90 1012.20 1012.41 1012.50 1012.48 1012.48
1004.63 1003.25 1001.06 999.02 997.57 997.02 997.29 998.69 999.55 999.55 998.88 998.75 999.15 999.41 999.01 999.64 1000.67 1001.45 1001.27 1001.45 1001.59 1002.03 1003.27 1004.61 1006.11 1006.63 1006.87 1007.25 1007.59 1008.15 1008.43 1008.70 1009.32 1009.84 1010.36 1010.66 1010.77 1010.87 1011.23 1011.40 1011.71 1011.85 1011.90 1012.08 1012.19 1012.30 1012.37 1012.45 1012.45
1004.24 1002.11 1000.64 999.21 998.05 997.46 998.93 999.90 1000.74 1000.40 999.80 999.18 999.60 999.59 999.92 999.47 1000.19 1001.36 1001.47 1001.12 1001.74 1001.77 1002.89 1004.26 1005.74 1006.61 1007.15 1007.39 1007.72 1008.14 1008.63 1008.83 1009.19 1009.82 1010.31 1010.74 1011.06 1011.16 1011.25 1011.58 1011.71 1011.94 1012.05 1012.13 1012.17 1012.23 1012.25 1012.25 1012.26
1004.31 1002.79 1001.08 999.87 998.97 998.84 999.37 1000.33 1001.81 1001.51 1001.03 1000.46 1000.78 1000.62 1000.09 1000.06 1000.82 1001.48 1001.15 1000.58 1000.94 1001.47 1002.45 1003.77 1005.28 1006.10 1006.89 1007.27 1007.97 1008.19 1008.71 1009.02 1009.23 1009.75 1010.27 1010.75 1011.15 1011.33 1011.44 1011.58 1011.76 1011.99 1012.15 1012.18 1012.09 1012.17 1012.22 1012.14 1012.02
1004.88 1003.12 1000.80 999.85 999.44 999.49 1000.25 1000.76 1001.71 1001.87 1002.26 1002.00 1001.77 1001.17 1000.82 1000.86 1001.41 1001.65 1001.13 1000.75 1000.56 1001.91 1003.03 1003.29 1004.50 1005.17 1005.94 1006.51 1007.54 1008.40 1008.70 1009.19 1009.44 1009.71 1010.19 1010.75 1010.55 1010.92 1011.29 1011.12 1011.48 1011.79 1011.90 1012.13 1012.15 1012.03 1011.97 1011.86 1011.71
1004.53 1002.38 1001.09 1001.37 1001.72 1001.74 1001.79 1001.84 1002.00 1002.23 1002.05 1001.74 1001.64 1001.48 1001.33 1001.32 1001.25 1001.22 1001.06 1000.70 1000.20 1001.19 1002.49 1003.41 1003.83 1004.55 1005.18 1005.38 1006.66 1007.54 1008.03 1008.60 1008.85 1009.16 1009.81 1009.81 1009.56 1010.06 1010.01 1010.68 1011.37 1011.65 1011.76 1011.82 1011.79 1011.81 1011.54 1011.43 1010.36
1003.97 1003.02 1002.52 1002.85 1003.03 1003.15 1002.85 1002.66 1002.61 1002.15 1001.73 1001.70 1001.53 1001.37 1001.13 1000.87 1000.74 1000.76 1000.95 1000.80 1000.54 1000.02 1001.71 1003.18 1003.70 1004.05 1004.73 1004.85 1006.08 1006.75 1007.17 1007.58 1008.07 1008.41 1009.03 1009.09 1008.88 1009.45 1009.57 1010.07 1010.73 1010.97 1011.44 1010.90 1011.14 1011.17 1010.93 1009.90 1009.17
1004.78 1003.80 1003.60 1003.62 1003.62 1003.53 1003.15 1002.84 1002.44 1002.18 1001.81 1001.85 1001.91 1001.75 1001.48 1001.33 1001.06 1000.92 1000.81 1000.59 1000.41 1000.27 1000.81 1002.28 1003.63 1003.64 1004.37 1004.39 1005.43 1006.07 1006.35 1006.84 1007.32 1007.60 1008.29 1008.50 1008.45 1008.93 1009.13 1009.00 1009.33 1009.74 1009.81 1009.57 1009.68 1009.24 1009.40 1009.75 1009.64
1004.39 1003.84 1003.91 1003.79 1003.51 1003.20 1002.97 1002.59 1002.22 1001.57 1001.59 1001.55 1001.60 1001.57 1001.46 1001.31 1001.29 1001.28 1001.09 1000.99 1000.81 1000.69 1000.53 1001.25 1003.20 1003.79 1004.00 1004.18 1004.69 1005.44 1005.70 1006.20 1006.60 1006.94 1007.70 1007.66 1008.09 1008.47 1008.83 1008.67 1008.60 1008.97 1008.83 1009.05 1009.09 1009.25 1009.43 1009.40 1009.72
1004.28 1004.32 1003.87 1003.33 1002.87 1002.52 1002.20 1001.86 1001.73 1000.88 1000.94 1000.79 1000.82 1001.11 1001.16 1001.05 1000.92 1000.93 1000.90 1001.01 1001.17 1001.45 1001.28 1000.85 1002.43 1003.84 1003.88 1004.12 1004.42 1004.83 1005.23 1005.60 1006.17 1006.39 1007.03 1007.42 1007.70 1008.06 1008.64 1008.71 1008.85 1008.69 1008.59 1008.64 1008.75 1009.01 1009.28 1009.54 1009.69
1004.83 1004.17 1002.93 1001.76 1001.85 1002.03 1002.09 1001.46 1000.48 999.74 999.69 999.77 1000.06 1000.16 1000.44 1000.57 1000.47 1000.39 1000.59 1000.59 1000.83 1001.02 1001.50 1000.97 1001.55 1003.41 1003.96 1003.95 1004.42 1004.81 1004.95 1005.01 1005.50 1005.83 1006.50 1007.20 1007.49 1007.89 1008.26 1008.37 1008.64 1008.48 1008.52 1008.76 1009.07 1009.33 1009.70 1009.83 1010.05
1003.93 1002.76 1001.41 1000.00 1000.55 1000.74 1001.74 999.90 999.55 999.25 999.09 999.05 999.22 999.59 999.58 999.78 999.97 1000.02 1000.18 1000.72 1001.07 1001.11 1000.79 1001.05 1001.27 1002.65 1003.75 1003.73 1004.07 1004.44 1004.61 1004.82 1005.09 1005.57 1006.13 1006.94 1007.24 1007.79 1008.20 1007.99 1008.24 1008.14 1008.47 1008.79 1008.83 1009.20 1009.18 1009.44 1009.71
1000.89 1000.95 1000.33 1000.04 1000.18 1000.04 1000.23 999.04 998.91 998.93 998.41 998.23 998.70 998.81 998.97 999.07 999.29 999.63 999.95 1000.07 1000.54 1000.74 1000.95 1000.69 1000.77 1001.01 1002.62 1003.70 1003.57 1003.91 1004.05 1004.59 1004.73 1005.06 1005.70 1006.63 1007.03 1007.58 1008.01 1007.76 1007.96 1008.11 1008.56 1008.62 1008.91 1009.15 1009.33 1009.28 1010.02
1002.21 1001.73 1001.21 1000.42 1000.03 999.69 999.10 997.97 997.51 997.47 997.33 997.00 997.07 997.29 997.50 997.87 998.06 998.77 999.27 999.59 999.97 1000.54 1000.72 1000.60 1000.18 1000.48 1001.53 1003.19 1003.63 1003.56 1003.52 1004.15 1004.13 1004.48 1005.07 1006.11 1006.79 1007.22 1007.82 1007.55 1007.76 1008.44 1008.52 1008.84 1009.01 1009.37 1009.59 1009.84 1009.85
1003.61 1002.53 1001.17 1000.34 999.65 999.45 998.49 997.72 997.07 996.45 996.35 996.05 996.08 996.35 996.64 996.81 997.25 997.86 998.49 998.91 999.26 999.94 1000.11 1000.01 1000.03 999.94 1001.03 1002.24 1003.04 1003.13 1002.87 1003.32 1003.57 1004.13 1004.64 1005.79 1006.26 1006.85 1007.59 1007.42 1007.95 1008.53 1008.37 1008.79 1009.41 1009.89 1010.08 1009.77 1010.15
1003.25 1002.06 1000.77 1000.07 999.90 999.83 998.41 996.82 996.04 995.77 995.74 995.99 996.09 996.32 996.41 996.69 996.98 997.23 997.61 998.21 998.74 999.12 999.69 999.74 999.59 999.77 1000.56 1001.30 1002.15 1002.73 1002.51 1002.75 1003.03 1003.64 1004.51 1005.53 1006.09 1006.67 1007.41 1007.25 1007.87 1008.48 1008.43 1009.08 1009.55 1009.85 1009.52 1009.77 1010.64
1002.80 1002.01 1001.23 1001.09 1000.35 999.07 996.65 995.95 995.77 996.17 996.05 995.76 996.19 996.68 996.83 996.85 996.85 997.08 997.21 997.48 998.06 998.45 999.02 999.43 999.24 999.79 1000.37 1000.65 1001.61 1002.50 1002.21 1002.33 1002.54 1002.99 1004.23 1005.25 1005.86 1006.68 1006.89 1007.21 1007.49 1008.15 1008.20 1009.01 1009.70 1009.93 1009.92 1009.60 1010.32
1002.94 1002.37 1002.33 1001.35 1000.05 998.07 997.57 995.88 996.26 995.77 995.64 995.57 996.24 996.20 996.25 996.47 996.55 996.17 996.37 996.77 997.20 997.67 998.34 999.05 998.61 999.39 1000.14 1000.55 1000.73 1001.51 1001.71 1001.52 1001.77 1002.41 1003.79 1004.85 1005.52 1006.27 1006.85 1007.05 1007.40 1008.07 1008.10 1008.47 1009.37 1009.95 1009.81 1010.35 1010.07
1003.60 1003.28 1002.53 1001.03 999.76 998.72 998.37 997.18 996.19 996.59 997.19 997.71 997.77 997.63 997.28 997.13 996.34 995.56 995.15 995.32 995.96 996.61 997.31 998.01 998.19 998.83 999.72 1000.11 1000.23 1000.90 1001.47 1001.33 1001.47 1002.05 1003.19 1004.48 1005.36 1005.83 1006.41 1006.81 1007.27 1008.10 1007.99 1008.97 1009.54 1010.37 1010.27 1010.47 1010.26
1003.71 1003.04 1002.19 1000.71 999.49 999.57 998.91 998.04 997.81 999.05 999.85 999.85 999.79 999.37 998.06 996.67 995.31 994.28 993.75 993.94 994.33 994.93 996.00 996.61 997.41 998.10 998.96 999.69 1000.05 1000.53 1000.97 1000.67 1001.07 1001.62 1002.94 1003.90 1004.96 1005.47 1005.95 1006.59 1007.49 1008.13 1008.63 1009.43 1009.99 1010.65 1010.85 1011.12 1011.27
1003.50 1003.27 1003.27 1001.78 1000.71 999.44 999.21 999.06 999.59 1000.36 1000.94 1001.21 1000.77 999.64 998.17 996.87 994.97 993.39 992.41 992.49 992.60 993.54 994.38 995.36 996.13 997.17 998.27 999.16 999.75 1000.07 1000.54 1000.64 1000.68 1001.36 1002.25 1003.13 1004.09 1004.84 1005.91 1006.66 1007.61 1008.38 1008.91 1009.76 1010.39 1010.93 1011.39 1011.95 1012.08
1004.06 1004.86 1006.35 1005.84 1004.19 1002.43 1000.88 999.75 999.17 1000.63 1001.42 1001.74 1001.06 1000.18 998.91 996.64 994.27 992.86 992.72 991.27 991.21 992.22 993.22 994.01 994.91 996.03 997.49 998.60 999.31 999.76 1000.17 1000.61 1000.76 1001.45 1001.91 1002.74 1003.22 1004.19 1005.75 1006.97 1007.99 1008.90 1009.49 1010.11 1010.61 1011.33 1011.97 1012.66 1012.82
1004.34 1005.29 1006.23 1007.33 1006.57 1004.86 1000.58 999.75 999.17 999.99 1001.13 1001.54 1000.59 999.95 998.25 996.34 994.73 993.28 990.75 990.68 990.70 991.42 992.19 993.01 993.71 995.19 996.90 997.93 998.87 999.45 999.82 999.97 1000.25 1000.97 1001.87 1002.43 1003.13 1004.37 1006.07 1007.22 1008.57 1009.45 1010.16 1010.89 1011.17 1011.76 1012.56 1013.37 1013.37
1005.03 1006.07 1006.54 1007.56 1007.61 1005.41 1002.04 1001.00 1001.20 1001.78 1002.14 1002.17 1001.25 1000.01 998.81 997.18 995.62 995.80 993.56 990.51 990.73 990.93 991.81 992.50 992.94 994.87 996.57 997.77 998.46 999.13 999.26 999.84 1000.18 1000.81 1001.73 1002.34 1003.23 1004.72 1006.59 1007.82 1009.13 1009.80 1010.55 1011.55 1012.20 1012.73 1013.27 1013.90 1014.21
1005.55 1005.65 1006.23 1007.89 1008.17 1007.55 1004.92 1002.60 1002.57 1002.98 1003.62 1003.55 1002.89 1000.89 1000.55 998.75 995.11 993.57 990.63 990.41 990.51 991.01 991.63 992.30 993.86 994.53 996.23 997.28 998.17 998.87 999.29 999.59 1000.14 1001.24 1002.02 1003.03 1004.50 1005.34 1007.54 1008.72 1009.55 1010.50 1011.21 1012.33 1012.87 1013.60 1013.84 1014.24 1015.16
1004.54 1005.66 1006.42 1007.65 1007.75 1007.70 1006.31 1003.71 1002.74 1004.01 1004.67 1004.77 1003.87 1002.13 1001.05 999.28 995.79 991.30 990.02 990.46 990.71 990.65 991.06 992.33 993.69 994.56 996.06 997.20 998.02 999.11 999.55 1000.33 1000.89 1002.55 1003.31 1004.44 1005.51 1006.86 1008.25 1009.47 1010.72 1011.65 1012.36 1012.87 1013.73 1014.51 1014.86 1015.31 1015.75
Wind_Speed
18 15 9 6 9 9 18 19 16 1 7 4 7 8 9 9 10 6 8 8 4 11 15 18 15 12 12 13 15 17 15 15 15 15 13 14 15 16 15 13 13 12 12 11 9 8 7 4 2
14 7 8 9 10 15 14 18 8 4 8 6 7 10 11 8 8 17 8 9 4 13 16 17 15 16 13 14 13 15 16 16 15 14 14 14 14 14 14 12 13 13 12 11 9 7 5 3 1
14 11 10 7 15 17 16 6 7 7 5 5 6 0 10 7 14 8 11 5 2 10 15 15 16 15 16 14 15 17 16 16 16 15 15 14 14 13 13 12 11 13 13 11 9 7 4 1 1
7 7 9 12 19 17 15 6 1 7 6 7 10 7 4 8 6 7 6 4 5 7 13 19 17 15 16 15 16 18 17 16 16 15 14 14 14 13 12 13 11 11 12 11 8 6 2 1 2
9 9 13 15 19 21 8 5 3 11 11 6 9 11 8 12 5 7 6 3 3 9 10 16 15 15 16 18 17 17 19 18 16 15 14 13 14 13 12 12 11 11 11 10 8 5 2 3 4
9 7 14 15 20 18 8 0 8 11 13 9 9 11 13 17 5 7 8 4 3 9 11 15 13 13 15 16 17 17 18 19 17 15 13 12 12 13 12 12 10 9 9 8 7 4 3 3 5
13 11 16 19 18 7 1 6 7 15 17 14 5 11 8 13 5 7 12 2 3 8 13 13 15 14 14 15 16 17 16 17 17 15 13 11 11 11 12 10 10 9 8 7 5 3 3 4 5
8 10 19 17 10 16 4 5 9 9 16 15 10 8 13 10 8 11 11 7 4 7 8 14 14 17 14 14 13 15 15 16 16 15 13 12 11 11 11 10 9 9 7 6 5 4 4 6 6
8 10 12 13 13 11 7 11 8 10 11 16 19 21 19 20 16 15 13 14 6 9 8 12 16 17 18 16 15 13 16 15 14 14 13 12 11 12 13 7 15 10 8 6 5 6 7 8 12
10 9 9 13 12 12 13 16 16 17 20 21 19 22 22 19 19 17 14 12 13 12 11 11 15 17 17 14 16 14 15 13 13 13 14 11 12 11 12 12 12 10 8 8 8 9 10 11 11
2 11 10 7 7 11 15 17 17 19 20 20 19 21 21 19 17 16 16 16 15 8 12 12 10 16 18 15 12 9 8 10 10 15 13 12 10 10 8 8 7 8 11 8 10 9 8 13 6
10 9 9 10 11 14 16 18 19 20 21 19 19 21 22 21 19 18 18 18 16 15 13 14 9 12 16 12 12 12 10 10 9 13 14 10 7 9 9 7 10 8 9 8 6 6 4 3 8
16 12 9 13 16 18 18 20 22 24 21 19 19 21 22 22 22 20 18 16 16 15 13 16 12 8 13 11 13 13 12 10 11 12 14 12 10 8 9 7 7 7 7 7 6 5 3 5 3
14 12 18 18 19 18 18 19 19 22 18 18 18 16 18 20 22 20 19 17 15 13 17 12 16 6 14 13 11 10 10 13 12 11 12 14 11 9 9 7 7 6 5 6 5 4 4 4 3
12 19 18 19 8 11 13 19 23 20 13 17 17 18 17 18 19 19 19 18 15 14 15 16 18 14 12 17 12 11 12 12 12 11 14 14 11 10 9 8 8 7 6 3 3 1 3 5 4
21 20 15 5 8 11 7 20 16 15 14 17 18 18 18 17 18 18 17 17 17 15 15 16 16 19 16 14 13 12 12 11 11 11 10 13 12 12 9 9 8 7 5 7 6 5 5 3 3
18 11 16 19 11 15 13 21 20 19 22 21 19 19 18 19 20 19 19 17 17 15 15 17 17 22 22 17 13 15 14 13 12 12 12 14 15 15 10 8 8 7 7 5 5 4 3 3 4
18 20 19 20 17 19 21 25 22 20 23 25 23 21 21 22 23 19 20 19 17 17 15 17 15 17 20 15 13 11 11 13 12 12 12 15 13 14 10 8 7 7 6 6 5 2 3 5 4
16 18 21 20 15 18 20 25 25 24 23 24 23 21 20 20 19 20 19 18 18 16 15 17 18 17 14 13 13 12 12 13 13 12 13 16 14 13 10 8 7 8 7 3 5 4 4 5 1
16 20 19 18 18 21 24 26 18 18 10 15 14 14 15 15 15 18 18 18 17 15 15 17 16 15 15 14 13 12 12 13 13 12 11 13 12 11 10 7 9 9 8 6 5 4 4 3 2
14 16 17 23 24 26 21 18 11 16 17 5 7 11 11 13 14 15 19 18 16 16 15 18 16 16 17 18 13 12 10 9 13 13 13 13 14 14 11 10 10 9 6 8 6 5 4 5 6
16 17 19 23 23 17 19 17 15 11 13 8 10 11 16 20 22 19 15 19 17 17 16 19 16 16 18 19 17 20 13 11 12 13 12 12 14 14 12 11 10 8 8 9 7 4 2 4 3
17 15 22 26 21 14 15 11 11 17 22 25 25 26 24 24 24 23 19 19 22 20 17 17 17 17 18 19 18 15 14 12 11 12 15 13 12 13 15 12 11 10 7 7 8 5 2 2 3
11 17 22 20 15 6 6 12 8 13 18 21 25 28 26 27 25 24 21 21 20 21 22 17 19 17 19 20 20 20 20 14 12 14 14 13 12 11 12 12 10 9 10 9 8 7 6 6 6
7 14 7 6 3 12 23 13 6 12 16 19 23 25 26 26 26 23 17 19 22 23 24 20 19 19 19 21 20 19 18 14 15 15 13 15 13 12 12 12 11 10 10 11 10 9 9 7 7
12 8 1 4 10 20 22 5 3 7 17 22 25 22 26 27 26 18 24 15 21 23 24 24 21 19 19 20 20 17 17 13 13 14 13 13 13 12 16 11 11 13 13 12 12 10 6 9 8
7 5 7 3 8 10 6 10 4 17 25 29 31 25 25 28 29 26 13 12 16 20 22 21 22 19 17 20 18 18 16 16 15 17 12 12 12 12 15 13 13 14 13 13 12 10 11 8 8
9 8 6 1 6 10 12 14 13 24 27 31 32 29 28 30 21 16 32 9 14 18 16 18 15 17 19 16 17 16 17 16 13 14 14 13 12 17 14 15 15 15 14 14 12 9 8 9 8
7 8 6 3 3 4 8 12 8 23 28 26 25 27 26 27 29 29 12 8 12 15 20 16 16 17 16 15 17 16 13 12 13 11 11 14 16 18 15 15 16 16 16 13 13 11 9 13 10
4 12 9 6 6 7 7 8 17 23 25 23 21 25 26 25 22 23 12 12 13 16 19 18 16 15 18 12 17 15 14 12 12 10 14 17 16 16 15 15 16 16 14 13 13 12 10 10 6
Wind_Direction
275 234 241 243 240 230 253 238 246 117 262 208 333 293 329 345 345 48 53 41 58 129 145 158 150 156 169 165 162 153 153 154 157 161 166 153 148 144 142 141 135 134 131 129 123 117 108 103 83
296 243 231 263 247 247 240 226 205 280 20 10 276 259 261 262 35 77 39 20 342 157 149 169 157 154 168 160 164 153 151 158 157 163 165 159 151 145 143 143 140 139 135 130 125 117 110 117 101
252 256 253 227 233 252 266 25 355 227 94 273 282 168 322 26 48 10 31 354 313 146 145 165 155 159 155 162 160 153 155 158 157 164 165 161 152 145 143 142 147 142 138 136 132 127 131 154 272
219 199 255 256 250 241 253 346 316 282 235 243 254 301 175 61 73 1 25 13 128 160 159 137 154 157 155 159 160 156 155 157 159 163 165 159 151 147 148 147 150 145 142 138 132 128 134 257 285
236 255 245 234 250 265 275 284 14 266 263 241 230 256 260 132 112 359 34 112 191 164 160 150 154 159 160 156 162 160 154 156 159 161 165 162 154 148 148 147 150 148 144 140 136 139 180 268 289
232 258 246 247 244 236 231 133 251 270 269 231 256 260 263 114 166 13 9 10 233 172 168 145 159 166 161 159 159 161 158 154 157 158 167 165 154 148 147 148 147 150 144 142 138 156 211 273 296
253 246 256 274 279 283 267 31 279 261 258 248 278 282 280 226 113 7 319 61 255 210 159 151 175 172 163 160 161 159 162 157 155 158 161 158 153 147 146 147 149 154 147 147 154 195 235 267 285
289 280 268 266 266 264 249 180 264 270 279 301 319 261 230 250 23 329 301 299 238 124 173 160 178 181 185 167 165 161 161 159 153 153 154 153 150 150 149 147 154 155 157 168 179 229 257 267 265
263 256 256 267 278 293 283 282 247 282 265 274 271 268 281 304 304 295 290 286 209 118 195 179 180 183 186 183 167 164 160 158 153 152 152 155 181 178 163 155 144 160 171 189 215 234 252 255 249
259 259 296 11 333 301 295 285 288 276 270 264 263 267 262 265 269 270 274 270 269 170 187 208 185 188 192 180 164 188 178 184 186 182 175 197 196 186 188 146 150 166 186 207 218 233 243 251 250
295 272 1 307 299 303 288 281 279 274 265 266 270 272 279 280 274 273 272 268 274 231 188 184 212 175 194 190 165 183 181 188 189 186 177 212 192 176 188 158 176 186 198 206 198 205 232 227 307
274 267 285 295 298 284 282 289 282 276 279 284 283 284 283 279 276 270 266 261 250 249 179 179 196 190 199 189 171 187 181 186 185 187 177 206 198 168 206 191 189 202 173 219 199 219 235 314 255
260 261 283 275 273 275 279 270 276 274 278 278 272 268 263 265 264 267 266 270 278 280 280 176 162 222 188 208 176 194 186 188 188 180 182 193 197 171 196 191 201 182 205 175 214 237 239 265 265
310 296 291 280 275 274 274 279 278 273 270 263 257 259 263 264 263 259 257 253 246 252 262 203 169 196 191 208 187 193 195 180 194 180 179 203 200 162 187 172 220 196 219 221 213 215 243 235 328
293 281 270 256 249 271 268 272 256 258 270 266 271 263 257 258 265 261 254 257 254 240 235 258 175 177 219 194 190 206 186 191 194 183 172 202 207 158 191 184 203 199 198 243 223 245 218 255 217
252 254 268 122 266 280 304 283 283 280 297 275 256 251 260 256 258 266 252 247 253 253 246 229 191 183 194 202 193 195 196 199 195 189 172 191 194 163 209 186 201 191 200 202 203 210 215 250 256
229 268 305 308 307 297 266 282 280 272 270 261 259 257 258 257 252 250 257 246 242 246 249 255 216 192 196 204 199 202 196 206 191 190 180 188 189 176 203 185 193 148 205 202 212 220 254 240 258
322 307 304 299 304 298 288 282 291 285 279 279 275 272 266 258 256 256 253 248 236 238 238 239 231 223 179 199 209 201 200 199 193 191 186 174 191 181 206 194 160 170 199 197 205 231 146 313 337
294 285 291 287 302 297 302 297 293 288 282 278 277 277 275 276 265 252 249 255 246 232 236 245 236 207 187 187 202 202 202 192 199 193 181 172 187 184 204 184 156 202 203 205 158 185 183 249 89
288 290 297 316 328 310 295 289 296 291 316 304 293 297 290 285 294 272 256 244 246 227 221 250 225 212 190 194 200 200 204 194 200 185 175 171 181 171 192 190 175 191 181 176 180 209 246 206 35
299 301 331 317 313 294 294 305 330 326 280 282 272 265 279 275 283 273 273 244 239 224 224 244 215 218 207 206 188 204 214 193 198 178 168 178 178 178 189 202 178 170 195 175 181 190 232 267 131
303 340 319 307 307 307 319 305 300 305 308 1 318 323 326 329 313 290 252 250 230 230 218 239 219 212 209 201 193 198 207 194 188 181 175 174 178 177 187 193 178 175 206 127 163 164 232 255 159
301 317 297 298 295 318 313 305 315 346 356 351 339 336 326 313 296 283 272 238 239 224 227 210 230 201 212 203 202 193 205 194 183 182 168 169 176 171 186 182 160 184 182 127 115 139 211 156 334
311 286 316 292 251 282 267 324 315 7 350 337 333 322 313 305 298 282 258 251 237 232 220 206 216 204 203 207 201 193 200 202 177 184 157 174 173 175 177 164 164 166 117 138 132 121 97 57 47
303 360 323 321 325 303 343 318 84 19 355 341 328 320 313 305 291 282 277 258 234 228 218 205 200 207 203 206 202 197 200 209 185 172 169 170 173 172 160 158 152 144 131 130 126 116 112 85 80
306 31 2 296 316 310 300 280 34 29 1 339 327 317 320 317 299 293 279 260 243 214 218 201 195 205 197 204 202 198 194 197 193 187 171 178 171 166 151 151 146 135 135 126 118 120 105 102 86
344 353 339 251 262 265 254 308 167 348 345 341 335 326 319 317 303 307 261 256 229 208 212 200 196 195 195 202 198 193 186 199 193 175 190 178 163 130 140 137 135 133 126 125 117 102 102 102 90
294 18 307 74 302 297 327 317 0 343 346 343 333 326 324 319 332 310 283 210 204 202 189 207 173 185 197 196 193 189 185 193 189 169 178 161 141 130 126 125 130 126 113 99 98 100 88 83 73
160 331 308 269 238 287 305 322 22 12 352 343 322 318 327 323 321 312 206 216 188 195 192 159 182 190 188 185 185 184 182 179 156 162 169 125 115 113 122 127 123 119 114 108 99 87 97 93 82
328 322 340 313 284 236 261 283 360 8 360 327 322 326 329 324 305 286 133 170 191 205 182 161 176 193 182 181 177 182 165 115 107 99 111 111 115 110 120 111 112 111 106 105 101 103 87 86 79